owner,sensor,date,latitude,longitude,vertical_datum,mass_concentration_of_oxygen_in_sea_water,qcFlag 
DISL,ioos:station:DISL:PPTA:1,2019-10-01T00:00:00Z,30.2791,-87.5561,1.634,0.0,11111222 
DISL,ioos:station:DISL:PPTA:1,2019-10-01T01:00:00Z,30.2791,-87.5561,1.634,0.0,11111222 
DISL,ioos:station:DISL:PPTA:1,2019-10-01T02:00:00Z,30.2791,-87.5561,1.634,0.0,11111222 
DISL,ioos:station:DISL:PPTA:1,2019-10-01T03:00:00Z,30.2791,-87.5561,1.634,0.0,11111222 
DISL,ioos:station:DISL:PPTA:1,2019-10-01T04:00:00Z,30.2791,-87.5561,1.634,0.0,11111222 
DISL,ioos:station:DISL:PPTA:1,2019-10-01T05:00:00Z,30.2791,-87.5561,1.634,0.0,11111222 
DISL,ioos:station:DISL:PPTA:1,2019-10-01T06:00:00Z,30.2791,-87.5561,1.634,0.0,11111222 
DISL,ioos:station:DISL:PPTA:1,2019-10-01T07:00:00Z,30.2791,-87.5561,1.634,0.0,11111222 
DISL,ioos:station:DISL:PPTA:1,2019-10-01T08:00:00Z,30.2791,-87.5561,1.634,0.0,11111222 
DISL,ioos:station:DISL:PPTA:1,2019-10-01T09:00:00Z,30.2791,-87.5561,1.634,0.0,11111222 
DISL,ioos:station:DISL:PPTA:1,2019-10-01T10:00:00Z,30.2791,-87.5561,1.634,0.0,11111222 
DISL,ioos:station:DISL:PPTA:1,2019-10-01T11:00:00Z,30.2791,-87.5561,1.634,0.0,11111222 
DISL,ioos:station:DISL:PPTA:1,2019-10-01T12:00:00Z,30.2791,-87.5561,1.634,0.0,11111222 
DISL,ioos:station:DISL:PPTA:1,2019-10-01T13:00:00Z,30.2791,-87.5561,1.634,0.0,11111222 
DISL,ioos:station:DISL:PPTA:1,2019-10-01T14:00:00Z,30.2791,-87.5561,1.634,0.0,11111222 
DISL,ioos:station:DISL:PPTA:1,2019-10-01T15:00:00Z,30.2791,-87.5561,1.634,0.0,11111222 
DISL,ioos:station:DISL:PPTA:1,2019-10-01T16:00:00Z,30.2791,-87.5561,1.634,0.0,11111222 
DISL,ioos:station:DISL:PPTA:1,2019-10-01T17:00:00Z,30.2791,-87.5561,1.634,0.0,11111222 
DISL,ioos:station:DISL:PPTA:1,2019-10-01T18:00:00Z,30.2791,-87.5561,1.634,0.0,11111222 
DISL,ioos:station:DISL:PPTA:1,2019-10-01T19:00:00Z,30.2791,-87.5561,1.634,0.0,11111222 
DISL,ioos:station:DISL:PPTA:1,2019-10-01T20:00:00Z,30.2791,-87.5561,1.634,0.0,11111222 
DISL,ioos:station:DISL:PPTA:1,2019-10-01T21:00:00Z,30.2791,-87.5561,1.634,0.0,11111222 
DISL,ioos:station:DISL:PPTA:1,2019-10-01T22:00:00Z,30.2791,-87.5561,1.634,0.0,11111222 
DISL,ioos:station:DISL:PPTA:1,2019-10-01T23:00:00Z,30.2791,-87.5561,1.634,0.0,11111222 
DISL,ioos:station:DISL:PPTA:1,2019-10-02T00:00:00Z,30.2791,-87.5561,1.634,0.0,11111222 
DISL,ioos:station:DISL:PPTA:1,2019-10-02T01:00:00Z,30.2791,-87.5561,1.634,0.0,11111222 
DISL,ioos:station:DISL:PPTA:1,2019-10-02T02:00:00Z,30.2791,-87.5561,1.634,0.0,11111222 
DISL,ioos:station:DISL:PPTA:1,2019-10-02T03:00:00Z,30.2791,-87.5561,1.634,0.0,11111222 
DISL,ioos:station:DISL:PPTA:1,2019-10-02T04:00:00Z,30.2791,-87.5561,1.634,0.0,11111222 
DISL,ioos:station:DISL:PPTA:1,2019-10-02T05:00:00Z,30.2791,-87.5561,1.634,0.0,11111222 
DISL,ioos:station:DISL:PPTA:1,2019-10-02T07:00:00Z,30.2791,-87.5561,1.634,0.0,11111222 
DISL,ioos:station:DISL:PPTA:1,2019-10-02T08:00:00Z,30.2791,-87.5561,1.634,0.0,11111222 
DISL,ioos:station:DISL:PPTA:1,2019-10-02T09:00:00Z,30.2791,-87.5561,1.634,0.0,11111222 
DISL,ioos:station:DISL:PPTA:1,2019-10-02T10:00:00Z,30.2791,-87.5561,1.634,0.0,11111222 
DISL,ioos:station:DISL:PPTA:1,2019-10-02T11:00:00Z,30.2791,-87.5561,1.634,0.0,11111222 
DISL,ioos:station:DISL:PPTA:1,2019-10-02T12:00:00Z,30.2791,-87.5561,1.634,0.0,11111222 
DISL,ioos:station:DISL:PPTA:1,2019-10-02T13:00:00Z,30.2791,-87.5561,1.634,0.0,11111222 
DISL,ioos:station:DISL:PPTA:1,2019-10-02T14:00:00Z,30.2791,-87.5561,1.634,0.0,11111222 
DISL,ioos:station:DISL:PPTA:1,2019-10-02T15:00:00Z,30.2791,-87.5561,1.634,0.0,11111222 
DISL,ioos:station:DISL:PPTA:1,2019-10-02T16:00:00Z,30.2791,-87.5561,1.634,0.0,11111222 
DISL,ioos:station:DISL:PPTA:1,2019-10-02T17:00:00Z,30.2791,-87.5561,1.634,0.0,11111222 
DISL,ioos:station:DISL:PPTA:1,2019-10-02T18:00:00Z,30.2791,-87.5561,1.634,0.0,11111222 
DISL,ioos:station:DISL:PPTA:1,2019-10-02T19:00:00Z,30.2791,-87.5561,1.634,0.0,11111222 
DISL,ioos:station:DISL:PPTA:1,2019-10-02T20:00:00Z,30.2791,-87.5561,1.634,0.0,11111222 
DISL,ioos:station:DISL:PPTA:1,2019-10-02T21:00:00Z,30.2791,-87.5561,1.634,0.0,11111222 
DISL,ioos:station:DISL:PPTA:1,2019-10-02T22:00:00Z,30.2791,-87.5561,1.634,0.0,11111222 
DISL,ioos:station:DISL:PPTA:1,2019-10-02T23:00:00Z,30.2791,-87.5561,1.634,0.0,11111222 
DISL,ioos:station:DISL:PPTA:1,2019-10-03T00:00:00Z,30.2791,-87.5561,1.634,0.0,11111222 
DISL,ioos:station:DISL:PPTA:1,2019-10-03T01:00:00Z,30.2791,-87.5561,1.634,0.0,11111222 
DISL,ioos:station:DISL:PPTA:1,2019-10-03T02:00:00Z,30.2791,-87.5561,1.634,0.0,11111222 
DISL,ioos:station:DISL:PPTA:1,2019-10-03T03:00:00Z,30.2791,-87.5561,1.634,0.0,11111222 
DISL,ioos:station:DISL:PPTA:1,2019-10-03T04:00:00Z,30.2791,-87.5561,1.634,0.0,11111222 
DISL,ioos:station:DISL:PPTA:1,2019-10-03T05:00:00Z,30.2791,-87.5561,1.634,0.0,11111222 
DISL,ioos:station:DISL:PPTA:1,2019-10-03T06:00:00Z,30.2791,-87.5561,1.634,0.0,11111222 
DISL,ioos:station:DISL:PPTA:1,2019-10-03T07:00:00Z,30.2791,-87.5561,1.634,0.0,11111222 
DISL,ioos:station:DISL:PPTA:1,2019-10-03T08:00:00Z,30.2791,-87.5561,1.634,0.0,11111222 
DISL,ioos:station:DISL:PPTA:1,2019-10-03T09:00:00Z,30.2791,-87.5561,1.634,0.0,11111222 
DISL,ioos:station:DISL:PPTA:1,2019-10-03T10:00:00Z,30.2791,-87.5561,1.634,0.0,11111222 
DISL,ioos:station:DISL:PPTA:1,2019-10-03T11:00:00Z,30.2791,-87.5561,1.634,0.0,11111222 
DISL,ioos:station:DISL:PPTA:1,2019-10-03T12:00:00Z,30.2791,-87.5561,1.634,0.0,11111222 
DISL,ioos:station:DISL:PPTA:1,2019-10-03T13:00:00Z,30.2791,-87.5561,1.634,0.0,11111222 
DISL,ioos:station:DISL:PPTA:1,2019-10-03T14:00:00Z,30.2791,-87.5561,1.634,0.0,11111222 
DISL,ioos:station:DISL:PPTA:1,2019-10-03T15:00:00Z,30.2791,-87.5561,1.634,0.0,11111222 
DISL,ioos:station:DISL:PPTA:1,2019-10-03T16:00:00Z,30.2791,-87.5561,1.634,0.0,11111222 
DISL,ioos:station:DISL:PPTA:1,2019-10-03T17:00:00Z,30.2791,-87.5561,1.634,0.0,11111222 
DISL,ioos:station:DISL:PPTA:1,2019-10-03T18:00:00Z,30.2791,-87.5561,1.466,6.31,11111222 
DISL,ioos:station:DISL:PPTA:1,2019-10-03T19:00:00Z,30.2791,-87.5561,1.437,6.37,11111222 
DISL,ioos:station:DISL:PPTA:1,2019-10-03T20:00:00Z,30.2791,-87.5561,1.466,7.02,11111222 
DISL,ioos:station:DISL:PPTA:1,2019-10-03T21:00:00Z,30.2791,-87.5561,1.485,6.79,11111222 
DISL,ioos:station:DISL:PPTA:1,2019-10-03T22:00:00Z,30.2791,-87.5561,1.508,6.58,11111222 
DISL,ioos:station:DISL:PPTA:1,2019-10-03T23:00:00Z,30.2791,-87.5561,1.512,6.46,11111222 
DISL,ioos:station:DISL:PPTA:1,2019-10-04T00:00:00Z,30.2791,-87.5561,1.538,5.87,11111222 
DISL,ioos:station:DISL:PPTA:1,2019-10-04T01:00:00Z,30.2791,-87.5561,1.58,5.91,11111222 
DISL,ioos:station:DISL:PPTA:1,2019-10-04T02:30:00Z,30.2791,-87.5561,1.64,6.01,11111222 
DISL,ioos:station:DISL:PPTA:1,2019-10-04T03:30:00Z,30.2791,-87.5561,1.676,5.63,11111222 
DISL,ioos:station:DISL:PPTA:1,2019-10-04T05:00:00Z,30.2791,-87.5561,1.717,5.04,11111222 
DISL,ioos:station:DISL:PPTA:1,2019-10-04T05:30:00Z,30.2791,-87.5561,1.728,5.67,11111222 
DISL,ioos:station:DISL:PPTA:1,2019-10-04T06:30:00Z,30.2791,-87.5561,1.744,5.53,11111222 
DISL,ioos:station:DISL:PPTA:1,2019-10-04T07:30:00Z,30.2791,-87.5561,1.753,5.44,11111222 
DISL,ioos:station:DISL:PPTA:1,2019-10-04T09:00:00Z,30.2791,-87.5561,1.735,5.77,11111222 
DISL,ioos:station:DISL:PPTA:1,2019-10-04T10:00:00Z,30.2791,-87.5561,1.708,5.77,11111222 
DISL,ioos:station:DISL:PPTA:1,2019-10-04T11:00:00Z,30.2791,-87.5561,1.665,5.8,11111222 
DISL,ioos:station:DISL:PPTA:1,2019-10-04T11:30:00Z,30.2791,-87.5561,1.657,5.74,11111222 
DISL,ioos:station:DISL:PPTA:1,2019-10-04T12:30:00Z,30.2791,-87.5561,1.643,5.19,11111222 
DISL,ioos:station:DISL:PPTA:1,2019-10-04T14:30:00Z,30.2791,-87.5561,1.557,5.87,11111222 
DISL,ioos:station:DISL:PPTA:1,2019-10-04T15:30:00Z,30.2791,-87.5561,1.535,5.97,11111222 
DISL,ioos:station:DISL:PPTA:1,2019-10-04T17:00:00Z,30.2791,-87.5561,1.488,6.43,11111222 
DISL,ioos:station:DISL:PPTA:1,2019-10-04T18:00:00Z,30.2791,-87.5561,1.465,6.66,11111222 
DISL,ioos:station:DISL:PPTA:1,2019-10-04T18:30:00Z,30.2791,-87.5561,1.459,6.73,11111222 
DISL,ioos:station:DISL:PPTA:1,2019-10-08T17:00:00Z,30.2791,-87.5561,1.642,5.87,11111222 
DISL,ioos:station:DISL:PPTA:1,2019-10-08T18:00:00Z,30.2791,-87.5561,1.612,5.94,11111222 
DISL,ioos:station:DISL:PPTA:1,2019-10-08T19:00:00Z,30.2791,-87.5561,1.58,6.91,11111222 
DISL,ioos:station:DISL:PPTA:1,2019-10-08T20:00:00Z,30.2791,-87.5561,1.558,6.81,11111222 
DISL,ioos:station:DISL:PPTA:1,2019-10-08T21:00:00Z,30.2791,-87.5561,1.54,6.8,11111222 
DISL,ioos:station:DISL:PPTA:1,2019-10-08T22:00:00Z,30.2791,-87.5561,1.546,6.71,11111222 
DISL,ioos:station:DISL:PPTA:1,2019-10-08T23:00:00Z,30.2791,-87.5561,1.509,6.78,11111222 
DISL,ioos:station:DISL:PPTA:1,2019-10-09T00:00:00Z,30.2791,-87.5561,1.524,6.54,11111222 
DISL,ioos:station:DISL:PPTA:1,2019-10-09T01:00:00Z,30.2791,-87.5561,1.538,5.5,11111222 
DISL,ioos:station:DISL:PPTA:1,2019-10-09T01:30:00Z,30.2791,-87.5561,1.538,5.23,11111222 
DISL,ioos:station:DISL:PPTA:1,2019-10-15T18:00:00Z,30.2791,-87.5561,1.675,5.83,11111222 
DISL,ioos:station:DISL:PPTA:1,2019-10-15T19:00:00Z,30.2791,-87.5561,1.695,6.12,11111222 
DISL,ioos:station:DISL:PPTA:1,2019-10-15T20:00:00Z,30.2791,-87.5561,1.711,6.08,11111222 
DISL,ioos:station:DISL:PPTA:1,2019-10-15T21:00:00Z,30.2791,-87.5561,1.712,6.4,11111222 
DISL,ioos:station:DISL:PPTA:1,2019-10-15T22:00:00Z,30.2791,-87.5561,1.744,5.85,11111222 
DISL,ioos:station:DISL:PPTA:1,2019-10-15T23:00:00Z,30.2791,-87.5561,1.782,6.01,11111222 
DISL,ioos:station:DISL:PPTA:1,2019-10-16T00:00:00Z,30.2791,-87.5561,1.801,5.57,11111222 
DISL,ioos:station:DISL:PPTA:1,2019-10-16T01:00:00Z,30.2791,-87.5561,1.83,5.56,11111222 
DISL,ioos:station:DISL:PPTA:1,2019-10-16T02:00:00Z,30.2791,-87.5561,1.853,5.68,11111222 
DISL,ioos:station:DISL:PPTA:1,2019-10-16T03:00:00Z,30.2791,-87.5561,1.87,5.82,11111222 
DISL,ioos:station:DISL:PPTA:1,2019-10-16T04:00:00Z,30.2791,-87.5561,1.836,5.8,11111222 
DISL,ioos:station:DISL:PPTA:1,2019-10-16T05:00:00Z,30.2791,-87.5561,1.841,5.88,11111222 
DISL,ioos:station:DISL:PPTA:1,2019-10-16T06:00:00Z,30.2791,-87.5561,1.811,5.91,11111222 
DISL,ioos:station:DISL:PPTA:1,2019-10-16T07:00:00Z,30.2791,-87.5561,1.772,5.38,11111222 
DISL,ioos:station:DISL:PPTA:1,2019-10-16T08:00:00Z,30.2791,-87.5561,1.758,5.55,11111222 
DISL,ioos:station:DISL:PPTA:1,2019-10-16T09:00:00Z,30.2791,-87.5561,1.776,5.37,11111222 
DISL,ioos:station:DISL:PPTA:1,2019-10-16T10:00:00Z,30.2791,-87.5561,1.776,5.37,11111222 
DISL,ioos:station:DISL:PPTA:1,2019-10-16T11:00:00Z,30.2791,-87.5561,1.776,5.37,11111222 
DISL,ioos:station:DISL:PPTA:1,2019-10-16T12:00:00Z,30.2791,-87.5561,1.776,5.37,11111222 
DISL,ioos:station:DISL:PPTA:1,2019-10-16T13:00:00Z,30.2791,-87.5561,1.776,5.37,11111222 
DISL,ioos:station:DISL:PPTA:1,2019-10-16T14:00:00Z,30.2791,-87.5561,1.776,5.37,11111222 
DISL,ioos:station:DISL:PPTA:1,2019-10-16T15:00:00Z,30.2791,-87.5561,1.776,5.37,11111222 
DISL,ioos:station:DISL:PPTA:1,2019-10-16T16:00:00Z,30.2791,-87.5561,1.776,5.37,11111222 
DISL,ioos:station:DISL:PPTA:1,2019-10-16T17:00:00Z,30.2791,-87.5561,1.776,5.37,11111222 
DISL,ioos:station:DISL:PPTA:1,2019-10-16T18:00:00Z,30.2791,-87.5561,1.776,5.37,11111222 
DISL,ioos:station:DISL:PPTA:1,2019-10-16T19:00:00Z,30.2791,-87.5561,1.776,5.37,11111222 
DISL,ioos:station:DISL:PPTA:1,2019-10-16T22:00:00Z,30.2791,-87.5561,1.776,5.37,11111222 
DISL,ioos:station:DISL:PPTA:1,2019-10-16T23:00:00Z,30.2791,-87.5561,1.776,5.37,11111222 
DISL,ioos:station:DISL:PPTA:1,2019-10-17T00:00:00Z,30.2791,-87.5561,1.776,5.37,11111222 
DISL,ioos:station:DISL:PPTA:1,2019-10-17T01:00:00Z,30.2791,-87.5561,1.776,5.37,11111222 
DISL,ioos:station:DISL:PPTA:1,2019-10-17T02:00:00Z,30.2791,-87.5561,1.776,5.37,11111222 
DISL,ioos:station:DISL:PPTA:1,2019-10-17T03:00:00Z,30.2791,-87.5561,1.776,5.37,11111222 
DISL,ioos:station:DISL:PPTA:1,2019-10-17T04:00:00Z,30.2791,-87.5561,1.776,5.37,11111222 
DISL,ioos:station:DISL:PPTA:1,2019-10-17T05:00:00Z,30.2791,-87.5561,1.776,5.37,11111222 
DISL,ioos:station:DISL:PPTA:1,2019-10-17T06:00:00Z,30.2791,-87.5561,1.776,5.37,11111222 
DISL,ioos:station:DISL:PPTA:1,2019-10-17T07:00:00Z,30.2791,-87.5561,1.776,5.37,11111222 
DISL,ioos:station:DISL:PPTA:1,2019-10-17T08:00:00Z,30.2791,-87.5561,1.776,5.37,11111222 
DISL,ioos:station:DISL:PPTA:1,2019-10-17T09:00:00Z,30.2791,-87.5561,1.776,5.37,11111222 
DISL,ioos:station:DISL:PPTA:1,2019-10-17T10:00:00Z,30.2791,-87.5561,1.776,5.37,11111222 
DISL,ioos:station:DISL:PPTA:1,2019-10-17T11:00:00Z,30.2791,-87.5561,1.776,5.37,11111222 
DISL,ioos:station:DISL:PPTA:1,2019-10-17T12:00:00Z,30.2791,-87.5561,1.776,5.37,11111222 
DISL,ioos:station:DISL:PPTA:1,2019-10-17T13:00:00Z,30.2791,-87.5561,1.776,5.37,11111222 
DISL,ioos:station:DISL:PPTA:1,2019-10-17T14:00:00Z,30.2791,-87.5561,1.776,5.37,11111222 
DISL,ioos:station:DISL:PPTA:1,2019-10-17T15:00:00Z,30.2791,-87.5561,1.776,5.37,11111222 
DISL,ioos:station:DISL:PPTA:1,2019-10-17T15:30:00Z,30.2791,-87.5561,1.776,5.37,11111222 
DISL,ioos:station:DISL:PPTA:1,2019-10-17T17:00:00Z,30.2791,-87.5561,1.776,5.37,11111222 
DISL,ioos:station:DISL:PPTA:1,2019-10-17T18:00:00Z,30.2791,-87.5561,1.776,5.37,11111222 
DISL,ioos:station:DISL:PPTA:1,2019-10-17T19:00:00Z,30.2791,-87.5561,1.776,5.37,11111222 
DISL,ioos:station:DISL:PPTA:1,2019-10-17T20:00:00Z,30.2791,-87.5561,1.776,5.37,11111222 
DISL,ioos:station:DISL:PPTA:1,2019-10-17T21:00:00Z,30.2791,-87.5561,1.776,5.37,11111222 
DISL,ioos:station:DISL:PPTA:1,2019-10-17T22:00:00Z,30.2791,-87.5561,1.776,5.37,11111222 
DISL,ioos:station:DISL:PPTA:1,2019-10-17T23:00:00Z,30.2791,-87.5561,1.776,5.37,11111222 
DISL,ioos:station:DISL:PPTA:1,2019-10-18T00:00:00Z,30.2791,-87.5561,1.776,5.37,11111222 
DISL,ioos:station:DISL:PPTA:1,2019-10-18T01:00:00Z,30.2791,-87.5561,1.776,5.37,11111222 
DISL,ioos:station:DISL:PPTA:1,2019-10-18T02:00:00Z,30.2791,-87.5561,1.776,5.37,11111222 
DISL,ioos:station:DISL:PPTA:1,2019-10-18T03:00:00Z,30.2791,-87.5561,1.776,5.37,11111222 
DISL,ioos:station:DISL:PPTA:1,2019-10-18T04:00:00Z,30.2791,-87.5561,1.776,5.37,11111222 
DISL,ioos:station:DISL:PPTA:1,2019-10-18T05:00:00Z,30.2791,-87.5561,1.776,5.37,11111222 
DISL,ioos:station:DISL:PPTA:1,2019-10-18T06:00:00Z,30.2791,-87.5561,1.776,5.37,11111222 
DISL,ioos:station:DISL:PPTA:1,2019-10-18T07:00:00Z,30.2791,-87.5561,1.776,5.37,11111222 
DISL,ioos:station:DISL:PPTA:1,2019-10-18T08:00:00Z,30.2791,-87.5561,1.776,5.37,11111222 
DISL,ioos:station:DISL:PPTA:1,2019-10-18T09:00:00Z,30.2791,-87.5561,1.776,5.37,11111222 
DISL,ioos:station:DISL:PPTA:1,2019-10-18T10:00:00Z,30.2791,-87.5561,1.776,5.37,11111222 
DISL,ioos:station:DISL:PPTA:1,2019-10-18T11:00:00Z,30.2791,-87.5561,1.776,5.37,11111222 
DISL,ioos:station:DISL:PPTA:1,2019-10-18T12:00:00Z,30.2791,-87.5561,1.776,5.37,11111222 
DISL,ioos:station:DISL:PPTA:1,2019-10-18T13:00:00Z,30.2791,-87.5561,1.776,5.37,11111222 
DISL,ioos:station:DISL:PPTA:1,2019-10-18T14:00:00Z,30.2791,-87.5561,1.776,5.37,11111222 
DISL,ioos:station:DISL:PPTA:1,2019-10-18T15:00:00Z,30.2791,-87.5561,1.776,5.37,11111222 
DISL,ioos:station:DISL:PPTA:1,2019-10-18T16:00:00Z,30.2791,-87.5561,1.776,5.37,11111222 
DISL,ioos:station:DISL:PPTA:1,2019-10-18T17:00:00Z,30.2791,-87.5561,1.776,5.37,11111222 
DISL,ioos:station:DISL:PPTA:1,2019-10-18T18:00:00Z,30.2791,-87.5561,1.776,5.37,11111222 
DISL,ioos:station:DISL:PPTA:1,2019-10-18T19:00:00Z,30.2791,-87.5561,1.776,5.37,11111222 
DISL,ioos:station:DISL:PPTA:1,2019-10-18T20:00:00Z,30.2791,-87.5561,1.556,6.77,11111222 
DISL,ioos:station:DISL:PPTA:1,2019-10-18T21:00:00Z,30.2791,-87.5561,1.61,6.43,11111222 
DISL,ioos:station:DISL:PPTA:1,2019-10-18T22:00:00Z,30.2791,-87.5561,1.612,6.79,11111222 
DISL,ioos:station:DISL:PPTA:1,2019-10-18T23:00:00Z,30.2791,-87.5561,1.672,6.26,11111222 
DISL,ioos:station:DISL:PPTA:1,2019-10-19T00:00:00Z,30.2791,-87.5561,1.723,6.1,11111222 
DISL,ioos:station:DISL:PPTA:1,2019-10-19T01:00:00Z,30.2791,-87.5561,1.763,6.51,11111222 
DISL,ioos:station:DISL:PPTA:1,2019-10-19T02:00:00Z,30.2791,-87.5561,1.793,6.51,11111222 
DISL,ioos:station:DISL:PPTA:1,2019-10-19T03:00:00Z,30.2791,-87.5561,1.828,6.31,11111222 
DISL,ioos:station:DISL:PPTA:1,2019-10-19T04:00:00Z,30.2791,-87.5561,1.847,6.27,11111222 
DISL,ioos:station:DISL:PPTA:1,2019-10-19T05:00:00Z,30.2791,-87.5561,1.878,6.41,11111222 
DISL,ioos:station:DISL:PPTA:1,2019-10-19T06:00:00Z,30.2791,-87.5561,1.903,6.38,11111222 
DISL,ioos:station:DISL:PPTA:1,2019-10-19T07:00:00Z,30.2791,-87.5561,1.882,6.41,11111222 
DISL,ioos:station:DISL:PPTA:1,2019-10-19T08:00:00Z,30.2791,-87.5561,1.902,6.26,11111222 
DISL,ioos:station:DISL:PPTA:1,2019-10-19T09:00:00Z,30.2791,-87.5561,1.891,6.36,11111222 
DISL,ioos:station:DISL:PPTA:1,2019-10-19T10:00:00Z,30.2791,-87.5561,1.887,6.24,11111222 
DISL,ioos:station:DISL:PPTA:1,2019-10-19T11:00:00Z,30.2791,-87.5561,1.809,6.0,11111222 
DISL,ioos:station:DISL:PPTA:1,2019-10-19T12:00:00Z,30.2791,-87.5561,1.802,6.16,11111222 
DISL,ioos:station:DISL:PPTA:1,2019-10-19T13:00:00Z,30.2791,-87.5561,1.806,6.08,11111222 
DISL,ioos:station:DISL:PPTA:1,2019-10-19T14:00:00Z,30.2791,-87.5561,1.726,6.14,11111222 
DISL,ioos:station:DISL:PPTA:1,2019-10-19T15:00:00Z,30.2791,-87.5561,1.689,6.16,11111222 
DISL,ioos:station:DISL:PPTA:1,2019-10-19T16:00:00Z,30.2791,-87.5561,1.651,6.41,11111222 
DISL,ioos:station:DISL:PPTA:1,2019-10-19T17:00:00Z,30.2791,-87.5561,1.649,6.77,11111222 
DISL,ioos:station:DISL:PPTA:1,2019-10-19T18:00:00Z,30.2791,-87.5561,1.625,7.12,11111222 
DISL,ioos:station:DISL:PPTA:1,2019-10-19T19:00:00Z,30.2791,-87.5561,1.613,6.93,11111222 
DISL,ioos:station:DISL:PPTA:1,2019-10-19T20:00:00Z,30.2791,-87.5561,1.656,7.27,11111222 
DISL,ioos:station:DISL:PPTA:1,2019-10-19T21:00:00Z,30.2791,-87.5561,1.625,7.36,11111222 
DISL,ioos:station:DISL:PPTA:1,2019-10-19T22:00:00Z,30.2791,-87.5561,1.63,7.19,11111222 
DISL,ioos:station:DISL:PPTA:1,2019-10-19T23:00:00Z,30.2791,-87.5561,1.655,7.65,11111222 
DISL,ioos:station:DISL:PPTA:1,2019-10-20T00:00:00Z,30.2791,-87.5561,1.694,7.24,11111222 
DISL,ioos:station:DISL:PPTA:1,2019-10-20T01:00:00Z,30.2791,-87.5561,1.693,6.68,11111222 
DISL,ioos:station:DISL:PPTA:1,2019-10-20T02:00:00Z,30.2791,-87.5561,1.743,6.32,11111222 
DISL,ioos:station:DISL:PPTA:1,2019-10-20T03:00:00Z,30.2791,-87.5561,1.777,6.15,11111222 
DISL,ioos:station:DISL:PPTA:1,2019-10-21T22:30:00Z,30.2791,-87.5561,1.4,7.65,11111222 
DISL,ioos:station:DISL:PPTA:1,2019-10-21T23:30:00Z,30.2791,-87.5561,1.335,7.58,11111222 
DISL,ioos:station:DISL:PPTA:1,2019-10-22T00:30:00Z,30.2791,-87.5561,1.44,7.39,11111222 
DISL,ioos:station:DISL:PPTA:1,2019-10-22T01:30:00Z,30.2791,-87.5561,1.516,6.22,11111222 
DISL,ioos:station:DISL:PPTA:1,2019-10-22T02:30:00Z,30.2791,-87.5561,1.501,5.96,11111222 
DISL,ioos:station:DISL:PPTA:1,2019-10-22T03:30:00Z,30.2791,-87.5561,1.568,6.05,11111222 
DISL,ioos:station:DISL:PPTA:1,2019-10-22T04:30:00Z,30.2791,-87.5561,1.545,5.33,11111222 
DISL,ioos:station:DISL:PPTA:1,2019-10-22T05:30:00Z,30.2791,-87.5561,1.586,4.58,11111222 
DISL,ioos:station:DISL:PPTA:1,2019-10-22T06:30:00Z,30.2791,-87.5561,1.607,4.76,11111222 
DISL,ioos:station:DISL:PPTA:1,2019-10-22T07:30:00Z,30.2791,-87.5561,1.591,4.53,11111222 
DISL,ioos:station:DISL:PPTA:1,2019-10-22T08:30:00Z,30.2791,-87.5561,1.593,4.82,11111222 
DISL,ioos:station:DISL:PPTA:1,2019-10-22T09:30:00Z,30.2791,-87.5561,1.632,4.8,11111222 
DISL,ioos:station:DISL:PPTA:1,2019-10-22T10:30:00Z,30.2791,-87.5561,1.64,4.83,11111222 
DISL,ioos:station:DISL:PPTA:1,2019-10-22T11:30:00Z,30.2791,-87.5561,1.541,5.14,11111222 
DISL,ioos:station:DISL:PPTA:1,2019-10-22T12:30:00Z,30.2791,-87.5561,1.552,5.32,11111222 
DISL,ioos:station:DISL:PPTA:1,2019-10-22T13:30:00Z,30.2791,-87.5561,1.504,5.3,11111222 
DISL,ioos:station:DISL:PPTA:1,2019-10-22T14:30:00Z,30.2791,-87.5561,1.447,5.42,11111222 
DISL,ioos:station:DISL:PPTA:1,2019-10-22T15:30:00Z,30.2791,-87.5561,1.452,5.71,11111222 
DISL,ioos:station:DISL:PPTA:1,2019-10-22T16:30:00Z,30.2791,-87.5561,1.394,6.48,11111222 
DISL,ioos:station:DISL:PPTA:1,2019-10-22T17:30:00Z,30.2791,-87.5561,1.366,6.9,11111222 
DISL,ioos:station:DISL:PPTA:1,2019-10-22T18:30:00Z,30.2791,-87.5561,1.327,6.99,11111222 
DISL,ioos:station:DISL:PPTA:1,2019-10-22T19:30:00Z,30.2791,-87.5561,1.279,7.51,11111222 
DISL,ioos:station:DISL:PPTA:1,2019-10-22T20:30:00Z,30.2791,-87.5561,1.268,7.71,11111222 
DISL,ioos:station:DISL:PPTA:1,2019-10-22T21:30:00Z,30.2791,-87.5561,1.26,7.94,11111222 
DISL,ioos:station:DISL:PPTA:1,2019-10-22T22:30:00Z,30.2791,-87.5561,1.251,8.05,11111222 
DISL,ioos:station:DISL:PPTA:1,2019-10-22T23:30:00Z,30.2791,-87.5561,1.279,7.14,11111222 
DISL,ioos:station:DISL:PPTA:1,2019-10-23T00:30:00Z,30.2791,-87.5561,1.292,7.33,11111222 
DISL,ioos:station:DISL:PPTA:1,2019-10-23T01:30:00Z,30.2791,-87.5561,1.304,6.23,11111222 
DISL,ioos:station:DISL:PPTA:1,2019-10-23T02:30:00Z,30.2791,-87.5561,1.331,5.95,11111222 
DISL,ioos:station:DISL:PPTA:1,2019-10-23T03:30:00Z,30.2791,-87.5561,1.339,4.4,11111222 
DISL,ioos:station:DISL:PPTA:1,2019-10-23T04:30:00Z,30.2791,-87.5561,1.35,4.05,11111222 
DISL,ioos:station:DISL:PPTA:1,2019-10-23T05:30:00Z,30.2791,-87.5561,1.38,3.59,11111222 
DISL,ioos:station:DISL:PPTA:1,2019-10-23T06:30:00Z,30.2791,-87.5561,1.393,3.8,11111222 
DISL,ioos:station:DISL:PPTA:1,2019-10-23T07:30:00Z,30.2791,-87.5561,1.408,3.62,11111222 
DISL,ioos:station:DISL:PPTA:1,2019-10-23T08:30:00Z,30.2791,-87.5561,1.414,4.12,11111222 
DISL,ioos:station:DISL:PPTA:1,2019-10-23T09:30:00Z,30.2791,-87.5561,1.431,3.71,11111222 
DISL,ioos:station:DISL:PPTA:1,2019-10-23T10:30:00Z,30.2791,-87.5561,1.463,4.36,11111222 
DISL,ioos:station:DISL:PPTA:1,2019-10-23T11:30:00Z,30.2791,-87.5561,1.468,4.3,11111222 
DISL,ioos:station:DISL:PPTA:1,2019-10-23T12:30:00Z,30.2791,-87.5561,1.45,3.83,11111222 
DISL,ioos:station:DISL:PPTA:1,2019-10-23T13:30:00Z,30.2791,-87.5561,1.441,5.12,11111222 
DISL,ioos:station:DISL:PPTA:1,2019-10-23T14:30:00Z,30.2791,-87.5561,1.388,5.24,11111222 
DISL,ioos:station:DISL:PPTA:1,2019-10-23T15:30:00Z,30.2791,-87.5561,1.355,5.58,11111222 
DISL,ioos:station:DISL:PPTA:1,2019-10-23T16:30:00Z,30.2791,-87.5561,1.356,5.58,11111222 
DISL,ioos:station:DISL:PPTA:1,2019-10-23T17:30:00Z,30.2791,-87.5561,1.309,6.48,11111222 
DISL,ioos:station:DISL:PPTA:1,2019-10-23T18:30:00Z,30.2791,-87.5561,1.258,6.94,11111222 
DISL,ioos:station:DISL:PPTA:1,2019-10-23T19:30:00Z,30.2791,-87.5561,1.249,6.64,11111222 
DISL,ioos:station:DISL:PPTA:1,2019-10-23T20:30:00Z,30.2791,-87.5561,1.216,6.7,11111222 
DISL,ioos:station:DISL:PPTA:1,2019-10-23T21:30:00Z,30.2791,-87.5561,1.213,6.86,11111222 
DISL,ioos:station:DISL:PPTA:1,2019-10-23T22:30:00Z,30.2791,-87.5561,1.22,7.28,11111222 
DISL,ioos:station:DISL:PPTA:1,2019-10-23T23:30:00Z,30.2791,-87.5561,1.231,7.2,11111222 
DISL,ioos:station:DISL:PPTA:1,2019-10-24T00:30:00Z,30.2791,-87.5561,1.265,6.83,11111222 
DISL,ioos:station:DISL:PPTA:1,2019-10-24T01:30:00Z,30.2791,-87.5561,1.257,6.97,11111222 
DISL,ioos:station:DISL:PPTA:1,2019-10-24T02:30:00Z,30.2791,-87.5561,1.266,5.79,11111222 
DISL,ioos:station:DISL:PPTA:1,2019-10-24T03:30:00Z,30.2791,-87.5561,1.263,4.99,11111222 
DISL,ioos:station:DISL:PPTA:1,2019-10-24T04:30:00Z,30.2791,-87.5561,1.273,5.18,11111222 
DISL,ioos:station:DISL:PPTA:1,2019-10-24T05:30:00Z,30.2791,-87.5561,1.32,4.71,11111222 
DISL,ioos:station:DISL:PPTA:1,2019-10-24T06:30:00Z,30.2791,-87.5561,1.349,5.06,11111222 
DISL,ioos:station:DISL:PPTA:1,2019-10-24T07:30:00Z,30.2791,-87.5561,1.362,4.46,11111222 
DISL,ioos:station:DISL:PPTA:1,2019-10-24T08:30:00Z,30.2791,-87.5561,1.381,4.59,11111222 
DISL,ioos:station:DISL:PPTA:1,2019-10-24T09:30:00Z,30.2791,-87.5561,1.412,4.53,11111222 
DISL,ioos:station:DISL:PPTA:1,2019-10-24T10:30:00Z,30.2791,-87.5561,1.403,4.86,11111222 
DISL,ioos:station:DISL:PPTA:1,2019-10-24T11:30:00Z,30.2791,-87.5561,1.444,4.69,11111222 
DISL,ioos:station:DISL:PPTA:1,2019-10-24T14:30:00Z,30.2791,-87.5561,1.438,5.06,11111222 
DISL,ioos:station:DISL:PPTA:1,2019-10-24T15:30:00Z,30.2791,-87.5561,1.409,5.46,11111222 
DISL,ioos:station:DISL:PPTA:1,2019-10-24T16:30:00Z,30.2791,-87.5561,1.377,5.9,11111222 
DISL,ioos:station:DISL:PPTA:1,2019-10-24T17:30:00Z,30.2791,-87.5561,1.356,6.42,11111222 